Retour au catalogue

A-SEANSAT-PG1

ActifRadio amateurSSO
NORAD 57197·PAYLOAD·🇲🇾 Malaysia

Lancé Jun 27, 2023 depuis Vostochny Cosmodrome

Loading…

Prochains Passages (prochaines 24 heures)

TLE

FraisSource: Space-Track

Époque: Sep 14, 2026, 21:40 UTC

1 57197U 23091AH  26257.90333566  .00019971  00000-0  50470-3 0  9997
2 57197  97.4994 329.5464 0007921 114.7951 245.4119 15.39805962178508

Suivez A-SEANSAT-PG1 en temps réel avec AllMySat

Download on the App Store